Time,TemperatureF,DewpointF,PressureIn,WindDirection,WindDirectionDegrees,WindSpeedMPH,WindSpeedGustMPH,Humidity,HourlyPrecipIn,Conditions,Clouds,dailyrainin,SolarRadiationWatts/m^2,SoftwareType,DateUTC
2013-01-01 00:03:00,33.0,27.0,-100.00,West,267,11.0,21.0,77,0.00,,,0.13,0.000000,,2013-01-01 05:03:00,
2013-01-01 00:12:00,33.0,27.0,-100.00,West,267,11.0,21.0,77,0.00,,,0.13,0.000000,,2013-01-01 05:12:00,
2013-01-01 00:22:00,33.0,27.0,-100.00,West,267,11.0,21.0,77,0.00,,,0.13,0.000000,,2013-01-01 05:22:00,
2013-01-01 00:53:00,32.0,25.0,-100.00,West,269,10.0,19.0,76,0.00,,,0.13,0.000000,,2013-01-01 05:53:00,
2013-01-01 01:02:00,32.0,25.0,-100.00,West,269,10.0,19.0,76,0.00,,,0.13,0.000000,,2013-01-01 06:02:00,
2013-01-01 01:12:00,32.0,25.0,-100.00,West,269,10.0,19.0,76,0.00,,,0.13,0.000000,,2013-01-01 06:12:00,
2013-01-01 01:22:00,32.0,25.0,-100.00,West,269,10.0,19.0,76,0.00,,,0.13,0.000000,,2013-01-01 06:22:00,
2013-01-01 01:52:00,32.0,24.0,-100.00,WNW,294,11.0,23.0,72,0.00,,,0.13,0.000000,,2013-01-01 06:52:00,
2013-01-01 02:02:00,32.0,24.0,-100.00,WNW,294,11.0,23.0,72,0.00,,,0.13,0.000000,,2013-01-01 07:02:00,
2013-01-01 02:12:00,32.0,24.0,-100.00,WNW,294,11.0,23.0,72,0.00,,,0.13,0.000000,,2013-01-01 07:12:00,
2013-01-01 02:22:00,32.0,24.0,-100.00,WNW,294,11.0,23.0,72,0.00,,,0.13,0.000000,,2013-01-01 07:22:00,
2013-01-01 02:53:00,30.0,21.0,-100.00,WNW,284,8.0,17.0,69,0.00,,,0.13,0.000000,,2013-01-01 07:53:00,
2013-01-01 03:02:00,30.0,21.0,-100.00,WNW,284,8.0,17.0,69,0.00,,,0.13,0.000000,,2013-01-01 08:02:00,
2013-01-01 03:12:00,30.0,21.0,-100.00,WNW,284,8.0,17.0,69,0.00,,,0.13,0.000000,,2013-01-01 08:12:00,
2013-01-01 03:22:00,30.0,21.0,-100.00,WNW,284,8.0,17.0,69,0.00,,,0.13,0.000000,,2013-01-01 08:22:00,
2013-01-01 03:53:00,29.0,19.0,-100.00,WNW,286,7.0,17.0,67,0.00,,,0.13,0.000000,,2013-01-01 08:53:00,
2013-01-01 04:02:00,29.0,19.0,-100.00,WNW,286,7.0,17.0,67,0.00,,,0.13,0.000000,,2013-01-01 09:02:00,
2013-01-01 04:12:00,29.0,19.0,-100.00,WNW,286,7.0,17.0,67,0.00,,,0.13,0.000000,,2013-01-01 09:12:00,
2013-01-01 04:22:00,29.0,19.0,-100.00,WNW,286,7.0,17.0,67,0.00,,,0.13,0.000000,,2013-01-01 09:22:00,
2013-01-01 04:52:00,28.0,16.0,-100.00,NW,306,9.0,20.0,60,0.00,,,0.13,0.000000,,2013-01-01 09:52:00,
2013-01-01 05:02:00,28.0,16.0,-100.00,NW,306,9.0,20.0,60,0.00,,,0.13,0.000000,,2013-01-01 10:02:00,
2013-01-01 05:12:00,28.0,16.0,-100.00,NW,306,9.0,20.0,60,0.00,,,0.13,0.000000,,2013-01-01 10:12:00,
2013-01-01 05:22:00,28.0,16.0,-100.00,NW,306,9.0,20.0,60,0.00,,,0.13,0.000000,,2013-01-01 10:22:00,
2013-01-01 05:53:00,27.0,14.0,-100.00,NW,308,9.0,23.0,57,0.00,,,0.13,0.000000,,2013-01-01 10:53:00,
2013-01-01 06:02:00,27.0,14.0,-100.00,NW,308,9.0,23.0,57,0.00,,,0.13,0.000000,,2013-01-01 11:02:00,
2013-01-01 06:12:00,27.0,14.0,-100.00,NW,308,9.0,23.0,57,0.00,,,0.13,0.000000,,2013-01-01 11:12:00,
2013-01-01 06:23:00,27.0,14.0,-100.00,NW,308,9.0,23.0,57,0.00,,,0.13,0.000000,,2013-01-01 11:23:00,
2013-01-01 06:53:00,27.0,14.0,-100.00,WNW,297,9.0,17.0,57,0.00,,,-99.99,0.000000,,2013-01-01 11:53:00,
2013-01-01 07:03:00,27.0,14.0,-100.00,WNW,297,9.0,17.0,57,0.00,,,-99.99,0.000000,,2013-01-01 12:03:00,
2013-01-01 07:12:00,27.0,14.0,-100.00,WNW,297,9.0,17.0,57,0.00,,,-99.99,0.000000,,2013-01-01 12:12:00,
2013-01-01 07:22:00,27.0,14.0,-100.00,WNW,297,9.0,17.0,57,0.00,,,-99.99,0.000000,,2013-01-01 12:22:00,
2013-01-01 07:53:00,26.0,14.0,-100.00,WNW,293,7.0,17.0,59,0.00,,,0.13,0.000000,,2013-01-01 12:53:00,
2013-01-01 08:03:00,26.0,14.0,-100.00,WNW,293,7.0,17.0,59,0.00,,,0.13,0.000000,,2013-01-01 13:03:00,
2013-01-01 08:12:00,26.0,14.0,-100.00,WNW,293,7.0,17.0,59,0.00,,,0.13,0.000000,,2013-01-01 13:12:00,
2013-01-01 08:22:00,26.0,14.0,-100.00,WNW,293,7.0,17.0,59,0.00,,,0.13,0.000000,,2013-01-01 13:22:00,
2013-01-01 08:53:00,26.0,15.0,-100.00,WNW,283,9.0,19.0,62,0.00,,,0.13,7.000000,,2013-01-01 13:53:00,
2013-01-01 09:03:00,26.0,15.0,-100.00,WNW,283,9.0,19.0,62,0.00,,,0.13,7.000000,,2013-01-01 14:03:00,
2013-01-01 09:12:00,26.0,15.0,-100.00,WNW,283,9.0,19.0,62,0.00,,,0.13,7.000000,,2013-01-01 14:12:00,
2013-01-01 09:22:00,26.0,15.0,-100.00,WNW,283,9.0,19.0,62,0.00,,,0.13,7.000000,,2013-01-01 14:22:00,
2013-01-01 09:53:00,26.0,19.0,-100.00,NNW,333,5.0,14.0,76,0.00,,,0.13,54.000000,,2013-01-01 14:53:00,
2013-01-01 10:03:00,26.0,19.0,-100.00,NNW,333,5.0,14.0,76,0.00,,,0.13,54.000000,,2013-01-01 15:03:00,
2013-01-01 10:12:00,26.0,19.0,-100.00,NNW,333,5.0,14.0,76,0.00,,,0.13,54.000000,,2013-01-01 15:12:00,
2013-01-01 10:22:00,26.0,19.0,-100.00,NNW,333,5.0,14.0,76,0.00,,,0.13,54.000000,,2013-01-01 15:22:00,
2013-01-01 10:53:00,23.0,20.0,-100.00,North,358,6.0,13.0,87,0.00,,,0.13,34.000000,,2013-01-01 15:53:00,
2013-01-01 11:02:00,23.0,20.0,-100.00,North,358,6.0,13.0,87,0.00,,,0.13,34.000000,,2013-01-01 16:02:00,
2013-01-01 11:12:00,23.0,20.0,-100.00,North,358,6.0,13.0,87,0.00,,,0.13,34.000000,,2013-01-01 16:12:00,
2013-01-01 11:22:00,23.0,20.0,-100.00,North,358,6.0,13.0,87,0.00,,,0.13,34.000000,,2013-01-01 16:22:00,
2013-01-01 11:53:00,23.0,18.0,-100.00,NW,322,7.0,12.0,80,0.00,,,0.13,135.000000,,2013-01-01 16:53:00,
2013-01-01 12:02:00,23.0,18.0,-100.00,NW,322,7.0,12.0,80,0.00,,,0.13,135.000000,,2013-01-01 17:02:00,
2013-01-01 12:12:00,23.0,18.0,-100.00,NW,322,7.0,12.0,80,0.00,,,0.13,135.000000,,2013-01-01 17:12:00,
2013-01-01 12:23:00,23.0,18.0,-100.00,NW,322,7.0,12.0,80,0.00,,,0.13,135.000000,,2013-01-01 17:23:00,
2013-01-01 12:53:00,24.0,9.0,-100.00,WNW,293,10.0,17.0,53,0.00,,,0.13,204.000000,,2013-01-01 17:53:00,
2013-01-01 13:03:00,24.0,9.0,-100.00,WNW,293,10.0,17.0,53,0.00,,,0.13,204.000000,,2013-01-01 18:03:00,
2013-01-01 13:13:00,24.0,9.0,-100.00,WNW,293,10.0,17.0,53,0.00,,,0.13,204.000000,,2013-01-01 18:13:00,
2013-01-01 13:23:00,24.0,9.0,-100.00,WNW,293,10.0,17.0,53,0.00,,,0.13,204.000000,,2013-01-01 18:23:00,
2013-01-01 13:53:00,25.0,10.0,-100.00,NW,319,8.0,16.0,52,0.00,,,0.11,263.000000,,2013-01-01 18:53:00,
2013-01-01 14:02:00,25.0,10.0,-100.00,NW,319,8.0,16.0,52,0.00,,,0.11,263.000000,,2013-01-01 19:02:00,
2013-01-01 14:12:00,25.0,10.0,-100.00,NW,319,8.0,16.0,52,0.00,,,0.11,263.000000,,2013-01-01 19:12:00,
2013-01-01 14:22:00,25.0,10.0,-100.00,NW,319,8.0,16.0,52,0.00,,,0.11,263.000000,,2013-01-01 19:22:00,
2013-01-01 14:53:00,23.0,11.0,-100.00,NNW,327,7.0,15.0,60,0.00,,,0.09,228.000000,,2013-01-01 19:53:00,
2013-01-01 15:02:00,23.0,11.0,-100.00,NNW,327,7.0,15.0,60,0.00,,,0.09,228.000000,,2013-01-01 20:02:00,
2013-01-01 15:13:00,23.0,11.0,-100.00,NNW,327,7.0,15.0,60,0.00,,,0.09,228.000000,,2013-01-01 20:13:00,
2013-01-01 15:23:00,23.0,11.0,-100.00,NNW,327,7.0,15.0,60,0.00,,,0.09,228.000000,,2013-01-01 20:23:00,
2013-01-01 15:53:00,22.0,11.0,-100.00,NW,326,5.0,12.0,62,0.00,,,0.06,108.000000,,2013-01-01 20:53:00,
2013-01-01 16:03:00,22.0,11.0,-100.00,NW,326,5.0,12.0,62,0.00,,,0.06,108.000000,,2013-01-01 21:03:00,
2013-01-01 16:13:00,22.0,11.0,-100.00,NW,326,5.0,12.0,62,0.00,,,0.06,108.000000,,2013-01-01 21:13:00,
2013-01-01 16:22:00,22.0,11.0,-100.00,NW,326,5.0,12.0,62,0.00,,,0.06,108.000000,,2013-01-01 21:22:00,
2013-01-01 16:53:00,20.0,10.0,-100.00,WNW,298,3.0,10.0,64,0.00,,,0.04,83.000000,,2013-01-01 21:53:00,
2013-01-01 17:03:00,20.0,10.0,-100.00,WNW,298,3.0,10.0,64,0.00,,,0.04,83.000000,,2013-01-01 22:03:00,
2013-01-01 17:12:00,20.0,10.0,-100.00,WNW,298,3.0,10.0,64,0.00,,,0.04,83.000000,,2013-01-01 22:12:00,
2013-01-01 17:22:00,20.0,10.0,-100.00,WNW,298,3.0,10.0,64,0.00,,,0.04,83.000000,,2013-01-01 22:22:00,
2013-01-01 17:53:00,18.0,9.0,-100.00,WSW,255,3.0,7.0,68,0.00,,,0.02,10.000000,,2013-01-01 22:53:00,
2013-01-01 18:03:00,18.0,9.0,-100.00,WSW,255,3.0,7.0,68,0.00,,,0.02,10.000000,,2013-01-01 23:03:00,
2013-01-01 18:13:00,18.0,9.0,-100.00,WSW,255,3.0,7.0,68,0.00,,,0.02,10.000000,,2013-01-01 23:13:00,
2013-01-01 18:22:00,18.0,9.0,-100.00,WSW,255,3.0,7.0,68,0.00,,,0.02,10.000000,,2013-01-01 23:22:00,
2013-01-01 18:53:00,13.0,7.0,-100.00,SW,221,1.0,4.0,76,0.00,,,0.00,0.000000,,2013-01-01 23:53:00,
2013-01-01 19:03:00,13.0,7.0,-100.00,SW,221,1.0,4.0,76,0.00,,,0.00,0.000000,,2013-01-02 00:03:00,
2013-01-01 19:12:00,13.0,7.0,-100.00,SW,221,1.0,4.0,76,0.00,,,0.00,0.000000,,2013-01-02 00:12:00,
2013-01-01 19:22:00,13.0,7.0,-100.00,SW,221,1.0,4.0,76,0.00,,,0.00,0.000000,,2013-01-02 00:22:00,
2013-01-01 19:53:00,8.0,4.0,-100.00,SE,137,0.0,2.0,83,0.00,,,0.00,0.000000,,2013-01-02 00:53:00,
2013-01-01 20:02:00,8.0,4.0,-100.00,SE,137,0.0,2.0,83,0.00,,,0.00,0.000000,,2013-01-02 01:02:00,
2013-01-01 20:12:00,8.0,4.0,-100.00,SE,137,0.0,2.0,83,0.00,,,0.00,0.000000,,2013-01-02 01:12:00,
2013-01-01 20:22:00,8.0,4.0,-100.00,SE,137,0.0,2.0,83,0.00,,,0.00,0.000000,,2013-01-02 01:22:00,
2013-01-01 20:53:00,6.0,2.0,-100.00,SSW,197,1.0,3.0,85,0.00,,,0.00,0.000000,,2013-01-02 01:53:00,
2013-01-01 21:02:00,6.0,2.0,-100.00,SSW,197,1.0,3.0,85,0.00,,,0.00,0.000000,,2013-01-02 02:02:00,
2013-01-01 21:12:00,6.0,2.0,-100.00,SSW,197,1.0,3.0,85,0.00,,,0.00,0.000000,,2013-01-02 02:12:00,
2013-01-01 21:22:00,6.0,2.0,-100.00,SSW,197,1.0,3.0,85,0.00,,,0.00,0.000000,,2013-01-02 02:22:00,
2013-01-01 21:53:00,12.0,4.0,-100.00,WSW,240,4.0,8.0,70,0.00,,,0.00,0.000000,,2013-01-02 02:53:00,
2013-01-01 22:02:00,12.0,4.0,-100.00,WSW,240,4.0,8.0,70,0.00,,,0.00,0.000000,,2013-01-02 03:02:00,
2013-01-01 22:12:00,12.0,4.0,-100.00,WSW,240,4.0,8.0,70,0.00,,,0.00,0.000000,,2013-01-02 03:12:00,
2013-01-01 22:22:00,12.0,4.0,-100.00,WSW,240,4.0,8.0,70,0.00,,,0.00,0.000000,,2013-01-02 03:22:00,
2013-01-01 22:53:00,15.0,6.0,-100.00,WSW,246,6.0,9.0,66,0.00,,,0.00,0.000000,,2013-01-02 03:53:00,
2013-01-01 23:03:00,15.0,6.0,-100.00,WSW,246,6.0,9.0,66,0.00,,,0.00,0.000000,,2013-01-02 04:03:00,
2013-01-01 23:12:00,15.0,6.0,-100.00,WSW,246,6.0,9.0,66,0.00,,,0.00,0.000000,,2013-01-02 04:12:00,
2013-01-01 23:22:00,15.0,6.0,-100.00,WSW,246,6.0,9.0,66,0.00,,,0.00,0.000000,,2013-01-02 04:22:00,
2013-01-01 23:53:00,16.0,7.0,-100.00,WSW,248,6.0,9.0,67,0.00,,,0.00,0.000000,,2013-01-02 04:53:00,